Showing default

SYMPHONIE 1, 7578

Orbit data source: Space-Track

SYMPHONIE 1, 7578 is an FR and DE payload satellite in GEO that was launched on Thu, 19 Dec 1974 UTC via a DELTA 2914 launch vehicle from the Air Force Eastern Test Range (AFETR). Payload-class satellites include a variety of spacecraft equipped with specific instruments for various scientific and technological missions. These include communications satellites like Starlink; space stations such as the ISS; scientific satellites like the Hubble; Earth observation satellites from companies like Planet Labs, Umbra, and HawkEye 360; GPS; miniature CubeSats for education and research; and military/defense satellites.

Not visible in the next 10 days
Identifier
7578, 1974-101A
Orbit
GEO
Country
Flag of UnknownUnknown / FGER
Related business
Manufacturer
AELM/CIFAS
Mission
Spacecraft
Bus & Motor
SYMPHONIE, S400
Mass
400 kg wet, 240 kg dry
Launch date (UTC)
1974-12-19 (51 years ago)
Launch vehicle
DELTA 2914
Launch site
Air Force Eastern Test Range (AFETR)
Object type
Payload
Rocket body
Debris
Shape & HBR
Unknown
Radar Cross Section
Large (>1 m²)

Expand to show TLE details & history
Last TLE update: 13 hours ago

TLE from 13 hours ago
0 SYMPHONIE 1
1 07578U 74101A   25349.72708193 -.00000314  00000-0  00000-0 0  9999
2 07578   5.0460 279.3301 0005209 350.7150 210.5063  0.99960161115360
Epoch: 2025-12-15T17:26Z
TLE epoch observation values (Epoch: 2025-12-15T17:26:59.878Z)
Latitude
-1.81369°
Longitude
134.05282°
Altitude
35,892.965 km
Speed
3.07 km/s
True Right ascension
08h 01m 41s
True Declination
-1° 48' 43"
Sunlit
Object was in daylight at epoch
Visualization orbit readout
Latitude
Unknown
Longitude
Unknown
Altitude
Unknown
Speed
Unknown
Apparent Right ascension
Unknown
Apparent Declination
Unknown
Sunlit
N/A
Visualization observer readout
Local Sidereal Time
04:44:21
Azimuth
Unknown
Elevation
Unknown
Doppler factor
Unknown
Orbital elements
Apogee altitude
35,897.247 km
Perigee altitude
35,853.228 km
Semi-major axis
42,253.375 km
Eccentricity
0.00052
Inclination
5.046°
RAAN
279.3301°
Arg. of periapsis
350.715°
True anomaly
210.47602°
Mean anomaly
210.5063°
Eccentric anomaly
210.49116°
Mean motion
0.24989 °/min
Orbital period
1,440.63 mins
BSTAR
0
Loading maneuver chart data...
Computing Atmospheric mass density...
Loading historical data...
Loading historical data...
Loading historical data...
Loading historical data...
Loading historical data...
Loading historical data...
Loading historical data...

Documentation

Showing up to 5 results
|